Fallon NAS, NV

3:53 AM PDT on May 28, 2017 (GMT -0700)
Fallon Naval Air Station

Weather History for KNFL - March, 2014

Change the Weather History Date:

Monday, March 10, 2014

  Actual Average Record
Temperature  
Mean Temperature 49 °F -  
Max Temperature 62 °F 59 °F 75 °F (1997)
Min Temperature 37 °F 28 °F 9 °F (1935)
Degree Days  
Heating Degree Days 16    
Moisture  
Dew Point 20 °F    
Average Humidity 32    
Maximum Humidity 50    
Minimum Humidity 20    
Precipitation  
Precipitation 0.00 in - - ()
Sea Level Pressure  
Sea Level Pressure 30.00 in    
Wind  
Wind Speed 12 mph (WNW)    
Max Wind Speed 28 mph    
Max Gust Speed 38 mph    
Visibility 10 miles    
Events      
Averages and records for this station are not official NWS values.
T = Trace of Precipitation, MM = Missing Value Source: NWS Daily Summary

Daily Weather History Graph

Daily Weather History Graph

Search for Another Location

Airport or City:

Trip Planner

Search our weather history database for the weather conditions in past years. The results will help you decide how hot, cold, wet, or windy it might be!

Date:

Astronomy

Mar. 10, 2014 Rise Set
Actual Time 7:13 AM PDT 6:56 PM PDT
Civil Twilight 6:47 AM PDT 7:23 PM PDT
Nautical Twilight 6:16 AM PDT 7:54 PM PDT
Astronomical Twilight 5:44 AM PDT 8:26 PM PDT
Moon 1:45 PM PDT (3/10) 3:27 AM PDT (3/10)
Length of Visible Light 12h 36m
Length of Day
11h 42m
Waxing Gibbous, 71% of the Moon is Illuminated
Mar 10
Waxing Gibbous
Mar 16
Full
Mar 23
Last Quarter
Mar 30
New
Apr 7
First Quarter

Hourly Weather History & Observations

Time (PDT) Temp. Windchill Dew Point Humidity Pressure Visibility Wind Dir Wind Speed Gust Speed Precip Events Conditions
12:56 AM 51.1 °F - 19.0 °F 28% 29.98 in 10.0 mi SSW 10.4 mph - N/A   Clear
1:56 AM 46.9 °F - 21.0 °F 36% 29.97 in 10.0 mi SSW 8.1 mph - N/A   Clear
2:56 AM 46.9 °F - 19.0 °F 33% 29.94 in 10.0 mi SSW 4.6 mph - N/A   Clear
3:56 AM 46.9 °F - 18.0 °F 32% 29.92 in 10.0 mi Calm Calm - N/A   Clear
4:56 AM 46.0 °F 43.9 °F 19.0 °F 34% 29.90 in 10.0 mi ESE 4.6 mph - N/A   Clear
5:56 AM 48.9 °F - 16.0 °F 27% 29.89 in 10.0 mi SE 4.6 mph - N/A   Clear
6:15 AM 44.1 °F 41.5 °F 17.1 °F 34% 29.97 in 10.0 mi South 4.6 mph - N/A   Scattered Clouds
6:39 AM 48.9 °F - 12.9 °F 24% 29.97 in 10.0 mi SW 15.0 mph - N/A   Mostly Cloudy
6:56 AM 46.9 °F - 15.1 °F 28% 29.89 in 10.0 mi SW 9.2 mph - N/A   Mostly Cloudy
7:56 AM 48.0 °F - 17.1 °F 29% 29.89 in 10.0 mi SSW 11.5 mph - N/A   Mostly Cloudy
8:56 AM 54.0 °F - 19.9 °F 26% 29.95 in 10.0 mi West 18.4 mph - N/A   Overcast
9:56 AM 53.1 °F - 30.9 °F 43% 29.99 in 10.0 mi West 23.0 mph 35.7 mph N/A   Mostly Cloudy
10:56 AM 57.9 °F - 26.1 °F 30% 29.97 in 10.0 mi WSW 27.6 mph 34.5 mph N/A   Mostly Cloudy
11:56 AM 60.1 °F - 18.0 °F 20% 29.97 in 10.0 mi West 17.3 mph 29.9 mph N/A   Mostly Cloudy
12:56 PM 61.0 °F - 23.0 °F 23% 29.96 in 10.0 mi WNW 25.3 mph 33.4 mph N/A   Mostly Cloudy
1:56 PM 59.0 °F - 21.0 °F 23% 29.98 in 10.0 mi NW 27.6 mph 33.4 mph N/A   Scattered Clouds
2:56 PM 57.0 °F - 18.0 °F 22% 30.01 in 10.0 mi NNW 23.0 mph 38.0 mph N/A   Scattered Clouds
3:56 PM 55.0 °F - 21.9 °F 28% 30.03 in 10.0 mi NNW 21.9 mph 28.8 mph N/A   Scattered Clouds
4:56 PM 54.0 °F - 21.0 °F 28% 30.04 in 10.0 mi NNW 18.4 mph 27.6 mph N/A   Scattered Clouds
5:56 PM 52.0 °F - 21.9 °F 31% 30.07 in 10.0 mi North 16.1 mph - N/A   Scattered Clouds
6:56 PM 48.0 °F - 21.0 °F 34% 30.08 in 10.0 mi North 11.5 mph - N/A   Scattered Clouds
7:56 PM 45.0 °F 40.1 °F 21.0 °F 39% 30.10 in 10.0 mi North 9.2 mph - N/A   Partly Cloudy
8:56 PM 41.0 °F 34.3 °F 21.0 °F 45% 30.14 in 10.0 mi North 11.5 mph - N/A   Partly Cloudy
9:56 PM 41.0 °F 34.3 °F 19.9 °F 43% 30.14 in 10.0 mi North 11.5 mph - N/A   Partly Cloudy
10:56 PM 37.0 °F 31.0 °F 19.9 °F 50% 30.16 in 10.0 mi North 8.1 mph - N/A   Clear
11:56 PM 37.0 °F 31.6 °F 19.9 °F 50% 30.17 in 10.0 mi SE 6.9 mph - N/A   Clear